Time,TemperatureF,DewpointF,PressureIn,WindDirection,WindDirectionDegrees,WindSpeedMPH,WindSpeedGustMPH,Humidity,HourlyPrecipIn,Conditions,Clouds,dailyrainin,SolarRadiationWatts/m^2,SoftwareType,DateUTC
2013-07-29 00:02:00,93.0,38.0,-100.00,NW,304,9.0,20.0,15,0.00,,,0.00,0.000000,,2013-07-29 07:02:00,
2013-07-29 00:43:00,89.0,35.0,-100.00,NW,311,4.0,15.0,15,0.00,,,0.00,0.000000,,2013-07-29 07:43:00,
2013-07-29 00:53:00,89.0,35.0,-100.00,NW,311,4.0,15.0,15,0.00,,,0.00,0.000000,,2013-07-29 07:53:00,
2013-07-29 01:02:00,89.0,35.0,-100.00,NW,311,4.0,15.0,15,0.00,,,0.00,0.000000,,2013-07-29 08:02:00,
2013-07-29 01:42:00,87.0,37.0,-100.00,NW,310,2.0,12.0,17,0.00,,,0.00,0.000000,,2013-07-29 08:42:00,
2013-07-29 01:52:00,87.0,37.0,-100.00,NW,310,2.0,12.0,17,0.00,,,0.00,0.000000,,2013-07-29 08:52:00,
2013-07-29 02:02:00,87.0,37.0,-100.00,NW,310,2.0,12.0,17,0.00,,,0.00,0.000000,,2013-07-29 09:02:00,
2013-07-29 02:33:00,85.0,35.0,-100.00,North,2,3.0,8.0,17,0.00,,,0.00,0.000000,,2013-07-29 09:33:00,
2013-07-29 02:43:00,85.0,35.0,-100.00,North,2,3.0,8.0,17,0.00,,,0.00,0.000000,,2013-07-29 09:43:00,
2013-07-29 03:48:00,84.0,37.0,-100.00,North,349,3.0,5.0,19,0.00,,,0.00,0.000000,,2013-07-29 10:48:00,
2013-07-29 03:55:00,84.0,37.0,-100.00,North,349,3.0,5.0,19,0.00,,,0.00,0.000000,,2013-07-29 10:55:00,
2013-07-29 04:03:00,84.0,37.0,-100.00,North,349,3.0,5.0,19,0.00,,,0.00,0.000000,,2013-07-29 11:03:00,
2013-07-29 04:58:00,80.0,35.0,-100.00,NNW,339,4.0,5.0,20,0.00,,,0.00,0.000000,,2013-07-29 11:58:00,
2013-07-29 13:48:00,105.0,44.0,-100.00,East,95,5.0,10.0,13,0.00,,,0.00,1189.000000,,2013-07-29 20:48:00,
2013-07-29 13:58:00,105.0,44.0,-100.00,East,95,5.0,10.0,13,0.00,,,0.00,1189.000000,,2013-07-29 20:58:00,
2013-07-29 14:59:00,104.0,43.0,-100.00,SSE,151,4.0,11.0,13,0.00,,,0.00,1220.000000,,2013-07-29 21:59:00,
2013-07-29 15:45:00,106.0,47.0,-100.00,East,101,5.0,11.0,14,0.00,,,0.00,1197.000000,,2013-07-29 22:45:00,
2013-07-29 15:55:00,106.0,47.0,-100.00,East,101,5.0,11.0,14,0.00,,,0.00,1197.000000,,2013-07-29 22:55:00,
2013-07-29 16:03:00,106.0,47.0,-100.00,East,101,5.0,11.0,14,0.00,,,0.00,1197.000000,,2013-07-29 23:03:00,
2013-07-29 17:50:00,109.0,47.0,-100.00,SSE,162,5.0,19.0,13,0.00,,,0.00,918.000000,,2013-07-30 00:50:00,
2013-07-29 18:04:00,109.0,47.0,-100.00,SSE,162,5.0,19.0,13,0.00,,,0.00,918.000000,,2013-07-30 01:04:00,
2013-07-29 18:46:00,109.0,56.0,-100.00,South,172,12.0,12.0,18,0.00,,,0.00,697.000000,,2013-07-30 01:46:00,
2013-07-29 18:58:00,109.0,56.0,-100.00,South,172,12.0,12.0,18,0.00,,,0.00,697.000000,,2013-07-30 01:58:00,
2013-07-29 19:04:00,109.0,56.0,-100.00,South,172,12.0,12.0,18,0.00,,,0.00,697.000000,,2013-07-30 02:04:00,
2013-07-29 19:46:00,106.0,50.0,-100.00,South,171,11.0,20.0,16,0.00,,,0.00,434.000000,,2013-07-30 02:46:00,
2013-07-29 19:55:00,106.0,50.0,-100.00,South,171,11.0,20.0,16,0.00,,,0.00,434.000000,,2013-07-30 02:55:00,
2013-07-29 20:04:00,106.0,50.0,-100.00,South,171,11.0,20.0,16,0.00,,,0.00,434.000000,,2013-07-30 03:04:00,
2013-07-29 21:33:00,97.0,52.0,-100.00,South,172,7.0,19.0,22,-99.99,,,0.00,12.000000,,2013-07-30 04:33:00,
2013-07-29 21:43:00,97.0,52.0,-100.00,South,172,7.0,19.0,22,-99.99,,,0.00,12.000000,,2013-07-30 04:43:00,
2013-07-29 21:53:00,97.0,52.0,-100.00,South,172,7.0,19.0,22,-99.99,,,0.00,12.000000,,2013-07-30 04:53:00,
2013-07-29 22:02:00,97.0,52.0,-100.00,South,172,7.0,19.0,22,-99.99,,,0.00,12.000000,,2013-07-30 05:02:00,
2013-07-29 22:45:00,93.0,51.0,-100.00,SSE,155,2.0,16.0,24,0.00,,,0.00,0.000000,,2013-07-30 05:45:00,
2013-07-29 22:52:00,93.0,51.0,-100.00,SSE,155,2.0,16.0,24,0.00,,,0.00,0.000000,,2013-07-30 05:52:00,
2013-07-29 23:02:00,93.0,51.0,-100.00,SSE,155,2.0,16.0,24,0.00,,,0.00,0.000000,,2013-07-30 06:02:00,
2013-07-29 23:43:00,90.0,50.0,-100.00,ESE,113,3.0,10.0,26,0.00,,,0.00,0.000000,,2013-07-30 06:43:00,